Regional Weather Roundup
Issued by NWS Mobile, AL

Home | Current Version | Previous Version | Text Only | Print | Product List | Glossary On
Versions: 1 2 3 4 5 6 7 8 9 10 11 12 13 14 15 16 17 18 19 20 21 22 23 24 25 26 27
000
ASUS44 KMOB 240812
RWRMOB
REGIONAL WEATHER ROUNDUP
NATIONAL WEATHER SERVICE MOBILE AL
200 AM CST SAT FEB 24 2018

NOTE: "FAIR" INDICATES FEW OR NO CLOUDS BELOW 12,000 FEET WITH NO
      SIGNIFICANT WEATHER AND/OR OBSTRUCTIONS TO VISIBILITY.

  * THESE STATIONS ARE PART OF THE UNIVERSITY OF SOUTH ALABAMA
    MESONET AND ARE NOT UNDER NWS OR FAA QUALITY CONTROL.

ALZ061>064-240900-
COASTAL ALABAMA

CITY           SKY/WX    TMP DP  RH WIND       PRES   REMARKS
MOBILE REG APT CLOUDY    70  68  93 S10       30.17F
BROOKLEY FIELD CLOUDY    70  70 100 S6        30.18S
USA CAMPUS*    NOT AVBL
DOG RIVER*     NOT AVBL


CITY           SKY/WX    TMP DP  RH WIND       PRES   REMARKS
GULF SHORES    FAIR      67  67 100 SE3       30.17F

$$

ALZ051>060-240900-
INTERIOR SOUTHWEST AND SOUTH CENTRAL ALABAMA

CITY           SKY/WX    TMP DP  RH WIND       PRES   REMARKS
GREENVILLE     CLOUDY    64  61  90 S5        30.18F FOG
EVERGREEN      CLOUDY    67  64  90 SE5       30.19F FOG
ATMORE*          N/A    N/A N/A N/A S3        30.95F
ANDALUSIA/OPP  CLOUDY    66  63  90 VRB3      30.19F
ANDALUSIA*       N/A     64  64 100 S6        30.19F
FLORALA APT    CLOUDY    64  62  93 S7        30.22F FOG
FLORALA*         N/A     64  64 100 CALM      30.94F

$$

FLZ001>006-240900-
WESTERN FLORIDA PANHANDLE

CITY           SKY/WX    TMP DP  RH WIND       PRES   REMARKS
PENSACOLA      MOCLDY    70  68  93 S6        30.17F
NAS PENSACOLA  NOT AVBL
MILTON         CLOUDY    67  67 100 SE5       30.18F
WHTNG S FIELD  MOCLDY    67  67 100 S5        30.18F FOG


CITY           SKY/WX    TMP DP  RH WIND       PRES   REMARKS
JAY*           NOT AVBL
DUKE FIELD     FOG       64  64 100 CALM      30.18F VSB 7/8
CRESTVIEW      CLOUDY    67  65  93 CALM      30.20F
VALPARAISO     CLOUDY    69  69  99 SE6       30.17F
DESTIN         CLOUDY    71  67  87 SE5       30.18F

$$

MSZ076-079-240900-
INTERIOR SOUTHEAST MISSISSIPPI

CITY           SKY/WX    TMP DP  RH WIND       PRES   REMARKS
LEAKESVILLE*     N/A     66  66 100 CALM      30.17F
AGRICOLA*        N/A     68  68 100 S2        30.15F

$$

MARINE OBSERVATIONS

STATION/POSITION TIME  TEMP    WIND        PRES    WAVE
                       AIR SEA DIR/SP/G            HT/PER
                 (UTC) (F)     (DEG/KT/KT) (MB)    (FT/S)
PETIT BOIS ISLND 0748   71     150/ 12/ 15 1021.8F
KATRINA CUT      0730          160/ 12     1021.3F
CEDAR POINT      0730   71     160/ 11     1021.7F
E DAUPHIN ISLAND 0800   71     160/ 10/ 10 1021.2F
MIDDLE BAY LIGHT 0730   69     140/ 11     1021.7F
USCG MOBILE BAY  0748   68 68  180/  5/  8 1021.7F
STATE DOCKS      0736   68 63              1021.7F
MEAHER PARK      0730   69     130/  6     1022.0S
WEEKS BAY        0645   70                 1022.0S
FORT MORGAN      0748   71     170/ 14/ 15   N/A
12 S ORANGE BCH  NOT AVBL
PENSACOLA BAY    0736   71 74  170/  5/  6 1022.2F
64 S DAUPHIN ISL 0750      67  160/ 12/ 14 1021.2F   5/ 7
67 S FORT MORGAN 0730   74                 1021.3F

$$

SELECTED LOCATIONS ACROSS THE REGION

CITY           SKY/WX    TMP DP  RH WIND       PRES   REMARKS
NEW ORLEANS    FAIR      70  70 100 SE5       30.11F
GULFPORT       CLOUDY    72  70  93 S7        30.13F
PASCAGOULA AP  CLOUDY    72  68  87 SE9       30.15F
PASCAGOULA*      N/A    N/A N/A N/A CALM      30.16F
HATTIESBURG    CLOUDY    69  69 100 S7        30.15F
LAUREL         FAIR      68  67  96 S5        30.15F
MERIDIAN       LGT RAIN  69  67  93 S10       30.14F
JACKSON        CLOUDY    68  67  96 S7        30.10F
MONTGOMERY     FAIR      65  62  90 SE3       30.19F
TROY           FAIR      63  61  93 CALM      30.21F
ASHFORD*         N/A     64  64 100 S6        30.19F
DOTHAN         FAIR      60  57  89 CALM      30.24F
PANAMA CITY    FOG       62  62 100 CALM      30.19F VSB 3/4

$$





USA.gov is the U.S. government's official web portal to all federal, state and local government web resources and services.